Location: ??????
(41.3164°N, 22.6615°E)
Time: 05:50:01
(UTC+00:00)

Tiangong - Visible Passes

Search period start: 28 January 2022 00:00
Search period end: 07 February 2022 00:00
Orbit: 381 x 387 km, 41.5° (Epoch: 27 January)

Date Brightness Start Highest point End Pass type
(mag) Time Alt. Az. Time Alt. Az. Time Alt. Az.
28 Jan 1.7 17:25:21 10° WSW 17:28:04 48° SSW 17:28:04 48° SSW visible
29 Jan 2.2 16:25:48 10° SW 16:28:44 34° SSE 16:31:12 13° E visible
29 Jan 3.7 18:02:13 10° W 18:03:25 21° W 18:03:25 21° W visible
30 Jan 1.1 17:02:24 10° WSW 17:05:34 73° SSE 17:06:30 42° E visible
31 Jan 2.0 17:39:20 10° W 17:41:44 47° W 17:41:44 47° W visible
01 Feb 1.0 16:39:26 10° W 16:42:37 89° SSE 16:44:45 19° E visible
01 Feb 4.3 18:16:16 10° W 18:16:57 15° W 18:16:57 15° W visible
02 Feb 0.9 17:16:21 10° W 17:19:32 88° N 17:19:57 64° E visible
03 Feb 1.1 16:16:22 10° W 16:19:34 85° N 16:22:45 10° E visible
03 Feb 2.9 17:53:13 10° W 17:55:10 32° W 17:55:10 32° W visible
04 Feb 1.1 16:53:13 10° W 16:56:25 78° S 16:58:13 23° ESE visible
04 Feb 4.7 18:30:19 10° W 18:30:26 11° W 18:30:26 11° W visible
05 Feb 2.1 17:30:07 10° W 17:33:06 38° SSW 17:33:32 36° S visible
06 Feb 1.6 16:30:01 10° W 16:33:08 57° SSW 16:36:15 10° ESE visible
06 Feb 3.9 18:07:36 10° WSW 18:08:56 15° SW 18:08:56 15° SW visible
